This is the latest recevied weather packets stored in our database for station/object N4ASP-13. If no packets are shown the sender has not sent any weather packets the latest 10 day(s).
| Time | Temp. | Humidity | Pressure | Rain* | Wind** | Luminosity | Snow |
|---|---|---|---|---|---|---|---|
| 1778266403 | 18.33° C | 44% | 1015.9 hPa | 0 mm | - | 1020 W/m² | - |
| 1778266343 | 18.33° C | 40% | 1015.9 hPa | 0 mm | - | 1021 W/m² | - |
| 1778266275 | 18.33° C | 42% | 1015.9 hPa | 0 mm | - | 1023 W/m² | - |
| 1778266217 | 18.33° C | 44% | 1015.8 hPa | 0 mm | - | 1023 W/m² | - |
| 1778266154 | 18.33° C | 43% | 1015.9 hPa | 0 mm | - | 1027 W/m² | - |
| 1778266095 | 17.78° C | 43% | 1015.9 hPa | 0 mm | - | 1027 W/m² | - |
| 1778266033 | 17.78° C | 43% | 1016 hPa | 0 mm | - | 1030 W/m² | - |
| 1778265966 | 17.78° C | 42% | 1016 hPa | 0 mm | - | 1030 W/m² | - |
| 1778265907 | 17.78° C | 38% | 1015.9 hPa | 0 mm | - | 1030 W/m² | - |
| 1778265847 | 17.78° C | 39% | 1016 hPa | 0 mm | - | 1034 W/m² | - |
| 1778265786 | 17.78° C | 40% | 1016 hPa | 0 mm | - | 1037 W/m² | - |
| 1778265726 | 17.78° C | 39% | 1016 hPa | 0 mm | - | 1037 W/m² | - |
| 1778265660 | 17.78° C | 38% | 1016 hPa | 0 mm | - | 1035 W/m² | - |
| 1778265601 | 17.78° C | 39% | 1016.1 hPa | 0 mm | - | 1041 W/m² | - |
| 1778265541 | 17.78° C | 40% | 1016 hPa | 0 mm | - | 1041 W/m² | - |
| 1778265479 | 17.78° C | 39% | 1016 hPa | 0 mm | - | 1041 W/m² | - |
| 1778265420 | 17.78° C | 38% | 1016 hPa | 0 mm | - | 1046 W/m² | - |
| 1778265351 | 18.33° C | 38% | 1016 hPa | 0 mm | - | 1046 W/m² | - |
| 1778265292 | 18.33° C | 40% | 1016 hPa | 0 mm | - | 1051 W/m² | - |
| 1778265231 | 18.33° C | 40% | 1016 hPa | 0 mm | - | 1051 W/m² | - |
| 1778265170 | 18.33° C | 40% | 1016 hPa | 0 mm | - | 1058 W/m² | - |
| 1778265110 | 18.33° C | 41% | 1016 hPa | 0 mm | - | 1060 W/m² | - |
| 1778265045 | 18.33° C | 41% | 1016 hPa | 0 mm | - | 1060 W/m² | - |
| 1778264986 | 18.33° C | 38% | 1016 hPa | 0 mm | - | 1056 W/m² | - |
| 1778264927 | 18.33° C | 39% | 1016.1 hPa | 0 mm | - | 1058 W/m² | - |
* Rain latest hour (hover to see other rain measurements)
** Current wind speed in m/s (hover to see current wind gust speed)